"Sample Date","Sample Time","Sample Value","Units","Flow Rate","Sample Interval","Number Channels","Micron Size 0","Counts/Channel 0","Micron Size 1","Counts/Channel 1","Micron Size 2","Counts/Channel 2","Micron Size 3","Counts/Channel 3","Micron Size 4","Counts/Channel 4","Micron Size 5","Counts/Channel 5","Micron Size 6","Counts/Channel 6","Micron Size 7","Counts/Channel 7","Micron Size 8","Counts/Channel 8","Micron Size 9","Counts/Channel 9","Micron Size 10","Counts/Channel 10","Micron Size 11","Counts/Channel 11","Micron Size 12","Counts/Channel 12","Micron Size 13","Counts/Channel 13","Micron Size 14","Counts/Channel 14","Micron Size 15","Counts/Channel 15","Micron Size 16","Counts/Channel 16","Micron Size 17","Counts/Channel 17","Micron Size 18","Counts/Channel 18","Micron Size 19","Counts/Channel 19","Micron Size 20","Counts/Channel 20","Micron Size 21","Counts/Channel 21","Micron Size 22","Counts/Channel 22","Micron Size 23","Counts/Channel 23","Micron Size 24","Counts/Channel 24","Micron Size 25","Counts/Channel 25","Micron Size 26","Counts/Channel 26","Micron Size 27","Counts/Channel 27","Micron Size 28","Counts/Channel 28","Micron Size 29","Counts/Channel 29","Micron Size 30","Counts/Channel 30","Micron Size 31","Counts/Channel 31"
"03/08/08","04:00:02",365760.000,"cc",28252.184,6.00,6,0.100,255008.000,0.200,105484.000,0.300,4977.000,0.500,267.000,1.000,24.000,5.000,0
"03/08/08","04:00:08",291381.000,"cc",28333.305,6.00,6,0.100,222935.000,0.200,65667.000,0.300,2574.000,0.500,185.000,1.000,20.000,5.000,0
"03/08/08","04:00:14",387158.000,"cc",28398.648,6.00,6,0.100,309816.000,0.200,74245.000,0.300,2879.000,0.500,197.000,1.000,21.000,5.000,0
"03/08/08","04:00:20",308518.000,"cc",28252.387,6.00,6,0.100,252657.000,0.200,53696.000,0.300,1994.000,0.500,152.000,1.000,19.000,5.000,0
"03/08/08","04:00:26",288370.000,"cc",28291.518,6.00,6,0.100,251090.000,0.200,35900.000,0.300,1231.000,0.500,129.000,1.000,20.000,5.000,0
"03/08/08","04:00:32",393109.000,"cc",28311.801,6.00,6,0.100,334718.000,0.200,56176.000,0.300,2043.000,0.500,154.000,1.000,18.000,5.000,0
"03/08/08","04:00:38",300035.000,"cc",28337.182,6.00,6,0.100,260384.000,0.200,38110.000,0.300,1414.000,0.500,106.000,1.000,21.000,5.000,0
"03/08/08","04:00:44",338453.000,"cc",28345.672,6.00,6,0.100,291890.000,0.200,44811.000,0.300,1590.000,0.500,145.000,1.000,17.000,5.000,0
"03/08/08","04:00:50",334137.000,"cc",28331.707,6.00,6,0.100,288843.000,0.200,43632.000,0.300,1494.000,0.500,147.000,1.000,21.000,5.000,0
"03/08/08","04:00:56",282340.000,"cc",28338.148,6.00,6,0.100,247107.000,0.200,33897.000,0.300,1195.000,0.500,123.000,1.000,18.000,5.000,0
"03/08/08","04:01:02",406783.000,"cc",28276.961,6.00,6,0.100,316786.000,0.200,85333.000,0.300,4390.000,0.500,254.000,1.000,20.000,5.000,0
"03/08/08","04:01:08",190520.000,"cc",28329.557,6.00,6,0.100,74698.000,0.200,111149.000,0.300,4413.000,0.500,240.000,1.000,20.000,5.000,0
"03/08/08","04:01:14",352182.000,"cc",28330.447,6.00,6,0.100,287608.000,0.200,62224.000,0.300,2158.000,0.500,165.000,1.000,27.000,5.000,0
"03/08/08","04:01:20",341958.000,"cc",28388.738,6.00,6,0.100,283072.000,0.200,56808.000,0.300,1873.000,0.500,180.000,1.000,25.000,5.000,0
"03/08/08","04:01:26",291965.000,"cc",28283.379,6.00,6,0.100,255985.000,0.200,34670.000,0.300,1170.000,0.500,125.000,1.000,15.000,5.000,0
"03/08/08","04:01:32",379157.000,"cc",28257.680,6.00,6,0.100,326524.000,0.200,50655.000,0.300,1831.000,0.500,131.000,1.000,16.000,5.000,0
"03/08/08","04:01:38",331622.000,"cc",28237.000,6.00,6,0.100,273960.000,0.200,55365.000,0.300,2062.000,0.500,197.000,1.000,38.000,5.000,0
"03/08/08","04:01:44",331627.000,"cc",28318.164,6.00,6,0.100,255506.000,0.200,73241.000,0.300,2649.000,0.500,214.000,1.000,17.000,5.000,0
"03/08/08","04:01:50",347551.000,"cc",28353.242,6.00,6,0.100,284223.000,0.200,60929.000,0.300,2201.000,0.500,170.000,1.000,28.000,5.000,0
"03/08/08","04:01:56",303865.000,"cc",28325.102,6.00,6,0.100,248844.000,0.200,52854.000,0.300,1995.000,0.500,154.000,1.000,18.000,5.000,0
"03/08/08","04:02:02",169570.000,"cc",28284.793,6.00,6,0.100,77391.000,0.200,88092.000,0.300,3786.000,0.500,260.000,1.000,41.000,5.000,0
"03/08/08","04:02:08",319286.000,"cc",28283.447,6.00,6,0.100,262718.000,0.200,54171.000,0.300,2172.000,0.500,195.000,1.000,30.000,5.000,0
"03/08/08","04:02:14",274442.000,"cc",28268.027,6.00,6,0.100,209945.000,0.200,61887.000,0.300,2414.000,0.500,176.000,1.000,20.000,5.000,0
"03/08/08","04:02:20",365915.000,"cc",28359.344,6.00,6,0.100,311212.000,0.200,52482.000,0.300,2016.000,0.500,180.000,1.000,25.000,5.000,0
"03/08/08","04:02:26",342725.000,"cc",28350.522,6.00,6,0.100,293292.000,0.200,47431.000,0.300,1814.000,0.500,155.000,1.000,33.000,5.000,0
"03/08/08","04:02:32",239290.000,"cc",28312.197,6.00,6,0.100,210065.000,0.200,27947.000,0.300,1099.000,0.500,153.000,1.000,26.000,5.000,0
"03/08/08","04:02:38",210591.000,"cc",28354.023,6.00,6,0.100,185435.000,0.200,24017.000,0.300,967.000,0.500,143.000,1.000,29.000,5.000,0
"03/08/08","04:02:44",136750.000,"cc",28288.168,6.00,6,0.100,121568.000,0.200,14461.000,0.300,583.000,0.500,115.000,1.000,23.000,5.000,0
"03/08/08","04:02:50",172172.000,"cc",28320.756,6.00,6,0.100,151598.000,0.200,19746.000,0.300,702.000,0.500,105.000,1.000,21.000,5.000,0
"03/08/08","04:02:56",231206.000,"cc",28311.315,6.00,6,0.100,201089.000,0.200,29010.000,0.300,987.000,0.500,96.000,1.000,24.000,5.000,0
"03/08/08","04:03:02",283279.000,"cc",28287.000,6.00,6,0.100,245736.000,0.200,36123.000,0.300,1300.000,0.500,108.000,1.000,12.000,5.000,0
"03/08/08","04:03:08",255544.000,"cc",28337.174,6.00,6,0.100,222267.000,0.200,32068.000,0.300,1089.000,0.500,104.000,1.000,16.000,5.000,0
"03/08/08","04:03:14",149313.000,"cc",28304.834,6.00,6,0.100,131895.000,0.200,16721.000,0.300,611.000,0.500,79.000,1.000,7.000,5.000,0
"03/08/08","04:03:20",151152.000,"cc",28336.631,6.00,6,0.100,133900.000,0.200,16563.000,0.300,593.000,0.500,86.000,1.000,10.000,5.000,0
"03/08/08","04:03:26",159749.000,"cc",28367.772,6.00,6,0.100,141336.000,0.200,17720.000,0.300,623.000,0.500,58.000,1.000,12.000,5.000,0
"03/08/08","04:03:32",107165.000,"cc",28342.184,6.00,6,0.100,95513.000,0.200,11177.000,0.300,411.000,0.500,56.000,1.000,8.000,5.000,0
"03/08/08","04:03:38",127539.000,"cc",28310.143,6.00,6,0.100,113029.000,0.200,13995.000,0.300,440.000,0.500,64.000,1.000,11.000,5.000,0
"03/08/08","04:03:44",130448.000,"cc",28279.080,6.00,6,0.100,115971.000,0.200,13991.000,0.300,421.000,0.500,58.000,1.000,7.000,5.000,0
"03/08/08","04:03:50",76481.000,"cc",28288.213,6.00,6,0.100,68491.000,0.200,7716.000,0.300,242.000,0.500,26.000,1.000,6.000,5.000,0
"03/08/08","04:03:56",66541.000,"cc",28325.272,6.00,6,0.100,59731.000,0.200,6554.000,0.300,217.000,0.500,35.000,1.000,4.000,5.000,0
"03/08/08","04:04:02",50761.000,"cc",28295.229,6.00,6,0.100,45622.000,0.200,4937.000,0.300,163.000,0.500,36.000,1.000,3.000,5.000,0
"03/08/08","04:04:08",65324.000,"cc",28314.322,6.00,6,0.100,58426.000,0.200,6633.000,0.300,212.000,0.500,48.000,1.000,5.000,5.000,0
"03/08/08","04:04:14",79730.000,"cc",28310.467,6.00,6,0.100,71005.000,0.200,8362.000,0.300,313.000,0.500,46.000,1.000,4.000,5.000,0
"03/08/08","04:04:20",112812.000,"cc",28356.863,6.00,6,0.100,100336.000,0.200,12046.000,0.300,374.000,0.500,51.000,1.000,5.000,5.000,0
"03/08/08","04:04:26",172093.000,"cc",28306.803,6.00,6,0.100,152412.000,0.200,19057.000,0.300,543.000,0.500,72.000,1.000,9.000,5.000,0
"03/08/08","04:04:32",156391.000,"cc",28317.393,6.00,6,0.100,138177.000,0.200,17657.000,0.300,486.000,0.500,61.000,1.000,10.000,5.000,0
"03/08/08","04:04:38",108282.000,"cc",28324.609,6.00,6,0.100,96639.000,0.200,11220.000,0.300,372.000,0.500,45.000,1.000,6.000,5.000,0
"03/08/08","04:04:44",103347.000,"cc",28285.350,6.00,6,0.100,92368.000,0.200,10599.000,0.300,312.000,0.500,60.000,1.000,8.000,5.000,0
"03/08/08","04:04:50",111090.000,"cc",28276.391,6.00,6,0.100,98903.000,0.200,11769.000,0.300,368.000,0.500,45.000,1.000,5.000,5.000,0
"03/08/08","04:04:56",169544.000,"cc",28296.979,6.00,6,0.100,150143.000,0.200,18774.000,0.300,567.000,0.500,53.000,1.000,7.000,5.000,0
"03/08/08","04:05:02",111081.000,"cc",28334.727,6.00,6,0.100,98901.000,0.200,11770.000,0.300,371.000,0.500,37.000,1.000,2.000,5.000,0
"03/08/08","04:05:08",88367.000,"cc",28319.998,6.00,6,0.100,79086.000,0.200,8998.000,0.300,250.000,0.500,27.000,1.000,6.000,5.000,0
"03/08/08","04:05:14",165945.000,"cc",28290.205,6.00,6,0.100,147548.000,0.200,17845.000,0.300,512.000,0.500,36.000,1.000,4.000,5.000,0
"03/08/08","04:05:20",146020.000,"cc",28308.182,6.00,6,0.100,130104.000,0.200,15410.000,0.300,460.000,0.500,43.000,1.000,3.000,5.000,0
"03/08/08","04:05:26",54039.000,"cc",28300.279,6.00,6,0.100,48673.000,0.200,5206.000,0.300,150.000,0.500,10.000,1.000,0,5.000,0
"03/08/08","04:05:32",44866.000,"cc",28315.779,6.00,6,0.100,40391.000,0.200,4301.000,0.300,157.000,0.500,17.000,1.000,0,5.000,0
"03/08/08","04:05:38",48410.000,"cc",28329.154,6.00,6,0.100,43701.000,0.200,4544.000,0.300,145.000,0.500,20.000,1.000,0,5.000,0
"03/08/08","04:05:44",119641.000,"cc",28310.436,6.00,6,0.100,106943.000,0.200,12299.000,0.300,357.000,0.500,40.000,1.000,2.000,5.000,0
"03/08/08","04:05:50",114043.000,"cc",28303.748,6.00,6,0.100,102353.000,0.200,11336.000,0.300,318.000,0.500,34.000,1.000,2.000,5.000,0
"03/08/08","04:05:56",57079.000,"cc",28300.063,6.00,6,0.100,51286.000,0.200,5617.000,0.300,153.000,0.500,21.000,1.000,2.000,5.000,0
"03/08/08","04:06:02",60962.000,"cc",28372.895,6.00,6,0.100,54855.000,0.200,5883.000,0.300,204.000,0.500,19.000,1.000,1.000,5.000,0
"03/08/08","04:06:08",136999.000,"cc",28335.602,6.00,6,0.100,122457.000,0.200,14131.000,0.300,383.000,0.500,27.000,1.000,1.000,5.000,0
"03/08/08","04:06:14",103726.000,"cc",28202.418,6.00,6,0.100,93034.000,0.200,10407.000,0.300,256.000,0.500,27.000,1.000,2.000,5.000,0
"03/08/08","04:06:20",89177.000,"cc",28336.072,6.00,6,0.100,80140.000,0.200,8779.000,0.300,230.000,0.500,27.000,1.000,1.000,5.000,0
"03/08/08","04:06:26",103683.000,"cc",28373.115,6.00,6,0.100,92828.000,0.200,10544.000,0.300,274.000,0.500,36.000,1.000,1.000,5.000,0
"03/08/08","04:06:32",49108.000,"cc",28317.744,6.00,6,0.100,44243.000,0.200,4711.000,0.300,140.000,0.500,14.000,1.000,0,5.000,0
"03/08/08","04:06:38",30316.000,"cc",28264.727,6.00,6,0.100,27326.000,0.200,2887.000,0.300,91.000,0.500,11.000,1.000,1.000,5.000,0
"03/08/08","04:06:44",30875.000,"cc",28317.313,6.00,6,0.100,27852.000,0.200,2911.000,0.300,103.000,0.500,8.000,1.000,1.000,5.000,0
"03/08/08","04:06:50",26215.000,"cc",28359.068,6.00,6,0.100,23598.000,0.200,2521.000,0.300,88.000,0.500,8.000,1.000,0,5.000,0
"03/08/08","04:06:56",33175.000,"cc",28267.949,6.00,6,0.100,29921.000,0.200,3139.000,0.300,100.000,0.500,13.000,1.000,2.000,5.000,0
"03/08/08","04:07:02",24387.000,"cc",28314.391,6.00,6,0.100,22013.000,0.200,2282.000,0.300,80.000,0.500,11.000,1.000,1.000,5.000,0
"03/08/08","04:07:08",27687.000,"cc",28306.393,6.00,6,0.100,24962.000,0.200,2620.000,0.300,91.000,0.500,13.000,1.000,1.000,5.000,0
"03/08/08","04:07:14",16121.000,"cc",28270.420,6.00,6,0.100,14592.000,0.200,1459.000,0.300,55.000,0.500,13.000,1.000,2.000,5.000,0
"03/08/08","04:07:20",20720.000,"cc",28353.727,6.00,6,0.100,18693.000,0.200,1938.000,0.300,85.000,0.500,4.000,1.000,0,5.000,0
"03/08/08","04:07:26",21814.000,"cc",28336.221,6.00,6,0.100,19708.000,0.200,2024.000,0.300,75.000,0.500,7.000,1.000,0,5.000,0
"03/08/08","04:07:32",17965.000,"cc",28337.701,6.00,6,0.100,16198.000,0.200,1685.000,0.300,68.000,0.500,11.000,1.000,3.000,5.000,0
"03/08/08","04:07:38",31103.000,"cc",28304.668,6.00,6,0.100,28145.000,0.200,2822.000,0.300,109.000,0.500,25.000,1.000,2.000,5.000,0
"03/08/08","04:07:44",47679.000,"cc",28273.475,6.00,6,0.100,43143.000,0.200,4344.000,0.300,164.000,0.500,25.000,1.000,3.000,5.000,0
"03/08/08","04:07:50",112052.000,"cc",28380.457,6.00,6,0.100,100835.000,0.200,10864.000,0.300,323.000,0.500,29.000,1.000,1.000,5.000,0
"03/08/08","04:07:56",105409.000,"cc",28326.279,6.00,6,0.100,94910.000,0.200,10185.000,0.300,290.000,0.500,23.000,1.000,1.000,5.000,0
"03/08/08","04:08:02",95580.000,"cc",28314.842,6.00,6,0.100,85966.000,0.200,9279.000,0.300,292.000,0.500,38.000,1.000,5.000,5.000,0
"03/08/08","04:08:08",53715.000,"cc",28308.973,6.00,6,0.100,48690.000,0.200,4849.000,0.300,153.000,0.500,21.000,1.000,2.000,5.000,0
"03/08/08","04:08:14",58243.000,"cc",28436.904,6.00,6,0.100,52663.000,0.200,5383.000,0.300,167.000,0.500,29.000,1.000,1.000,5.000,0
"03/08/08","04:08:20",46572.000,"cc",28335.701,6.00,6,0.100,42200.000,0.200,4199.000,0.300,141.000,0.500,26.000,1.000,6.000,5.000,0
"03/08/08","04:08:26",62974.000,"cc",28191.947,6.00,6,0.100,57022.000,0.200,5774.000,0.300,148.000,0.500,30.000,1.000,0,5.000,0
"03/08/08","04:08:32",67677.000,"cc",28274.229,6.00,6,0.100,61275.000,0.200,6191.000,0.300,194.000,0.500,16.000,1.000,1.000,5.000,0
"03/08/08","04:08:38",43285.000,"cc",28347.731,6.00,6,0.100,39318.000,0.200,3819.000,0.300,122.000,0.500,22.000,1.000,4.000,5.000,0
"03/08/08","04:08:44",20582.000,"cc",28348.324,6.00,6,0.100,18590.000,0.200,1882.000,0.300,88.000,0.500,20.000,1.000,2.000,5.000,0
"03/08/08","04:08:50",24811.000,"cc",28287.008,6.00,6,0.100,22399.000,0.200,2275.000,0.300,106.000,0.500,26.000,1.000,5.000,5.000,0
"03/08/08","04:08:56",12983.000,"cc",28332.252,6.00,6,0.100,11607.000,0.200,1243.000,0.300,92.000,0.500,35.000,1.000,6.000,5.000,0
"03/08/08","04:09:02",7607.000,"cc",28337.106,6.00,6,0.100,6709.000,0.200,776.000,0.300,79.000,0.500,41.000,1.000,2.000,5.000,0
"03/08/08","04:09:08",7668.000,"cc",28313.238,6.00,6,0.100,6545.000,0.200,863.000,0.300,159.000,0.500,86.000,1.000,15.000,5.000,0
"03/08/08","04:09:14",6184.000,"cc",28312.809,6.00,6,0.100,5461.000,0.200,638.000,0.300,63.000,0.500,17.000,1.000,5.000,5.000,0
"03/08/08","04:09:20",7426.000,"cc",28251.981,6.00,6,0.100,6631.000,0.200,747.000,0.300,36.000,0.500,11.000,1.000,1.000,5.000,0
"03/08/08","04:09:26",7675.000,"cc",28286.551,6.00,6,0.100,6879.000,0.200,716.000,0.300,66.000,0.500,13.000,1.000,1.000,5.000,0
"03/08/08","04:09:32",8129.000,"cc",28351.158,6.00,6,0.100,7219.000,0.200,791.000,0.300,91.000,0.500,24.000,1.000,4.000,5.000,0
"03/08/08","04:09:38",6108.000,"cc",28361.025,6.00,6,0.100,5471.000,0.200,576.000,0.300,45.000,0.500,14.000,1.000,2.000,5.000,0
"03/08/08","04:09:44",6107.000,"cc",28286.451,6.00,6,0.100,5467.000,0.200,570.000,0.300,55.000,0.500,14.000,1.000,1.000,5.000,0
"03/08/08","04:09:50",7138.000,"cc",28344.305,6.00,6,0.100,6423.000,0.200,666.000,0.300,31.000,0.500,16.000,1.000,2.000,5.000,0
"03/08/08","04:09:56",10917.000,"cc",28350.854,6.00,6,0.100,9698.000,0.200,1066.000,0.300,117.000,0.500,33.000,1.000,3.000,5.000,0
"03/08/08","04:10:02",6741.000,"cc",28325.371,6.00,6,0.100,5895.000,0.200,700.000,0.300,101.000,0.500,37.000,1.000,8.000,5.000,0
"03/08/08","04:10:08",6680.000,"cc",28314.936,6.00,6,0.100,5792.000,0.200,714.000,0.300,115.000,0.500,50.000,1.000,9.000,5.000,0
"03/08/08","04:10:14",6844.000,"cc",28265.805,6.00,6,0.100,5929.000,0.200,764.000,0.300,96.000,0.500,53.000,1.000,2.000,5.000,0
"03/08/08","04:10:20",12909.000,"cc",28288.203,6.00,6,0.100,11497.000,0.200,1251.000,0.300,113.000,0.500,41.000,1.000,7.000,5.000,0
"03/08/08","04:10:26",8832.000,"cc",28323.951,6.00,6,0.100,7740.000,0.200,872.000,0.300,132.000,0.500,77.000,1.000,11.000,5.000,0
"03/08/08","04:10:32",6945.000,"cc",28314.066,6.00,6,0.100,5994.000,0.200,743.000,0.300,125.000,0.500,70.000,1.000,13.000,5.000,0
"03/08/08","04:10:38",7721.000,"cc",28267.598,6.00,6,0.100,6625.000,0.200,810.000,0.300,163.000,0.500,97.000,1.000,26.000,5.000,0
"03/08/08","04:10:44",7038.000,"cc",28308.627,6.00,6,0.100,6124.000,0.200,731.000,0.300,112.000,0.500,61.000,1.000,10.000,5.000,0
"03/08/08","04:10:50",6918.000,"cc",28325.065,6.00,6,0.100,6012.000,0.200,744.000,0.300,98.000,0.500,57.000,1.000,7.000,5.000,0
"03/08/08","04:10:56",6033.000,"cc",28313.102,6.00,6,0.100,5305.000,0.200,617.000,0.300,69.000,0.500,38.000,1.000,4.000,5.000,0
"03/08/08","04:11:02",7225.000,"cc",28298.383,6.00,6,0.100,6448.000,0.200,686.000,0.300,65.000,0.500,23.000,1.000,3.000,5.000,0
"03/08/08","04:11:08",7006.000,"cc",28357.818,6.00,6,0.100,6230.000,0.200,670.000,0.300,73.000,0.500,31.000,1.000,2.000,5.000,0
"03/08/08","04:11:14",6386.000,"cc",28332.240,6.00,6,0.100,5637.000,0.200,634.000,0.300,85.000,0.500,25.000,1.000,5.000,5.000,0
"03/08/08","04:11:20",5725.000,"cc",28361.131,6.00,6,0.100,4980.000,0.200,623.000,0.300,80.000,0.500,40.000,1.000,2.000,5.000,0
"03/08/08","04:11:26",6213.000,"cc",28336.666,6.00,6,0.100,5569.000,0.200,583.000,0.300,45.000,0.500,14.000,1.000,2.000,5.000,0
"03/08/08","04:11:32",7033.000,"cc",28332.469,6.00,6,0.100,6254.000,0.200,681.000,0.300,82.000,0.500,16.000,1.000,0,5.000,0
"03/08/08","04:11:38",6398.000,"cc",28329.361,6.00,6,0.100,5691.000,0.200,646.000,0.300,47.000,0.500,13.000,1.000,1.000,5.000,0
"03/08/08","04:11:44",8429.000,"cc",28291.084,6.00,6,0.100,7525.000,0.200,841.000,0.300,45.000,0.500,17.000,1.000,1.000,5.000,0
"03/08/08","04:11:50",5818.000,"cc",28228.598,6.00,6,0.100,5180.000,0.200,570.000,0.300,55.000,0.500,11.000,1.000,2.000,5.000,0
"03/08/08","04:11:56",8200.000,"cc",28317.213,6.00,6,0.100,7342.000,0.200,812.000,0.300,40.000,0.500,2.000,1.000,4.000,5.000,0
"03/08/08","04:12:02",5346.000,"cc",28328.475,6.00,6,0.100,4744.000,0.200,559.000,0.300,37.000,0.500,6.000,1.000,0,5.000,0
"03/08/08","04:12:08",8577.000,"cc",28311.234,6.00,6,0.100,7657.000,0.200,831.000,0.300,73.000,0.500,16.000,1.000,0,5.000,0
"03/08/08","04:12:14",5570.000,"cc",28314.537,6.00,6,0.100,4916.000,0.200,574.000,0.300,62.000,0.500,18.000,1.000,0,5.000,0
"03/08/08","04:12:20",5521.000,"cc",28299.801,6.00,6,0.100,4811.000,0.200,596.000,0.300,82.000,0.500,31.000,1.000,1.000,5.000,0
"03/08/08","04:12:26",7745.000,"cc",28311.365,6.00,6,0.100,6948.000,0.200,752.000,0.300,38.000,0.500,6.000,1.000,1.000,5.000,0
"03/08/08","04:12:32",7730.000,"cc",28325.516,6.00,6,0.100,6942.000,0.200,720.000,0.300,51.000,0.500,16.000,1.000,1.000,5.000,0
"03/08/08","04:12:38",4755.000,"cc",28342.611,6.00,6,0.100,4243.000,0.200,469.000,0.300,34.000,0.500,8.000,1.000,1.000,5.000,0
"03/08/08","04:12:44",5523.000,"cc",28285.770,6.00,6,0.100,4923.000,0.200,556.000,0.300,33.000,0.500,11.000,1.000,0,5.000,0
"03/08/08","04:12:50",6709.000,"cc",28353.815,6.00,6,0.100,6040.000,0.200,623.000,0.300,36.000,0.500,10.000,1.000,0,5.000,0
"03/08/08","04:12:56",4831.000,"cc",28338.510,6.00,6,0.100,4266.000,0.200,500.000,0.300,51.000,0.500,13.000,1.000,1.000,5.000,0
"03/08/08","04:13:02",4790.000,"cc",28284.906,6.00,6,0.100,4260.000,0.200,483.000,0.300,33.000,0.500,13.000,1.000,1.000,5.000,0
"03/08/08","04:13:08",5311.000,"cc",28275.125,6.00,6,0.100,4695.000,0.200,569.000,0.300,39.000,0.500,6.000,1.000,2.000,5.000,0
"03/08/08","04:13:14",5041.000,"cc",28274.356,6.00,6,0.100,4475.000,0.200,515.000,0.300,37.000,0.500,12.000,1.000,2.000,5.000,0
"03/08/08","04:13:20",6334.000,"cc",28372.762,6.00,6,0.100,5599.000,0.200,680.000,0.300,46.000,0.500,8.000,1.000,1.000,5.000,0
"03/08/08","04:13:26",5893.000,"cc",28387.467,6.00,6,0.100,5196.000,0.200,626.000,0.300,54.000,0.500,15.000,1.000,2.000,5.000,0
"03/08/08","04:13:32",6944.000,"cc",28348.252,6.00,6,0.100,6133.000,0.200,725.000,0.300,65.000,0.500,20.000,1.000,1.000,5.000,0
"03/08/08","04:13:38",5525.000,"cc",28321.725,6.00,6,0.100,4865.000,0.200,584.000,0.300,53.000,0.500,22.000,1.000,1.000,5.000,0
"03/08/08","04:13:44",6012.000,"cc",28262.455,6.00,6,0.100,5262.000,0.200,671.000,0.300,57.000,0.500,19.000,1.000,3.000,5.000,0
"03/08/08","04:13:50",5030.000,"cc",28261.344,6.00,6,0.100,4430.000,0.200,515.000,0.300,52.000,0.500,28.000,1.000,5.000,5.000,0
"03/08/08","04:13:56",5034.000,"cc",28313.940,6.00,6,0.100,4376.000,0.200,587.000,0.300,48.000,0.500,22.000,1.000,1.000,5.000,0
"03/08/08","04:14:02",5852.000,"cc",28293.443,6.00,6,0.100,5138.000,0.200,618.000,0.300,69.000,0.500,24.000,1.000,3.000,5.000,0
"03/08/08","04:14:08",4977.000,"cc",28334.129,6.00,6,0.100,4431.000,0.200,478.000,0.300,50.000,0.500,15.000,1.000,3.000,5.000,0
"03/08/08","04:14:14",4698.000,"cc",28373.190,6.00,6,0.100,4123.000,0.200,514.000,0.300,43.000,0.500,18.000,1.000,0,5.000,0
"03/08/08","04:14:20",5937.000,"cc",28356.693,6.00,6,0.100,5214.000,0.200,654.000,0.300,52.000,0.500,16.000,1.000,1.000,5.000,0
"03/08/08","04:14:26",9835.000,"cc",28307.113,6.00,6,0.100,8703.000,0.200,994.000,0.300,102.000,0.500,35.000,1.000,1.000,5.000,0
"03/08/08","04:14:32",10210.000,"cc",28290.699,6.00,6,0.100,8955.000,0.200,1079.000,0.300,132.000,0.500,42.000,1.000,2.000,5.000,0
"03/08/08","04:14:38",5780.000,"cc",28341.254,6.00,6,0.100,5098.000,0.200,614.000,0.300,51.000,0.500,16.000,1.000,1.000,5.000,0
"03/08/08","04:14:44",4663.000,"cc",28332.117,6.00,6,0.100,4062.000,0.200,502.000,0.300,76.000,0.500,23.000,1.000,0,5.000,0
"03/08/08","04:14:50",4762.000,"cc",28247.615,6.00,6,0.100,4203.000,0.200,499.000,0.300,49.000,0.500,11.000,1.000,0,5.000,0
"03/08/08","04:14:56",5487.000,"cc",28298.340,6.00,6,0.100,4866.000,0.200,574.000,0.300,36.000,0.500,11.000,1.000,0,5.000,0
"03/08/08","04:15:02",6490.000,"cc",28301.805,6.00,6,0.100,5792.000,0.200,648.000,0.300,34.000,0.500,11.000,1.000,5.000,5.000,0
"03/08/08","04:15:08",12022.000,"cc",28376.781,6.00,6,0.100,10812.000,0.200,1151.000,0.300,50.000,0.500,8.000,1.000,1.000,5.000,0
"03/08/08","04:15:14",6656.000,"cc",28270.449,6.00,6,0.100,5915.000,0.200,678.000,0.300,49.000,0.500,14.000,1.000,0,5.000,0
"03/08/08","04:15:20",9054.000,"cc",28369.418,6.00,6,0.100,8061.000,0.200,892.000,0.300,78.000,0.500,23.000,1.000,0,5.000,0
"03/08/08","04:15:26",4623.000,"cc",28299.568,6.00,6,0.100,4052.000,0.200,504.000,0.300,51.000,0.500,12.000,1.000,4.000,5.000,0
"03/08/08","04:15:32",5220.000,"cc",28369.324,6.00,6,0.100,4623.000,0.200,548.000,0.300,40.000,0.500,8.000,1.000,1.000,5.000,0
"03/08/08","04:15:38",4966.000,"cc",28282.621,6.00,6,0.100,4346.000,0.200,541.000,0.300,56.000,0.500,21.000,1.000,2.000,5.000,0
"03/08/08","04:15:44",4723.000,"cc",28348.152,6.00,6,0.100,4030.000,0.200,568.000,0.300,81.000,0.500,38.000,1.000,6.000,5.000,0
"03/08/08","04:15:50",4724.000,"cc",28284.977,6.00,6,0.100,4091.000,0.200,521.000,0.300,73.000,0.500,34.000,1.000,5.000,5.000,0
"03/08/08","04:15:56",4334.000,"cc",28283.041,6.00,6,0.100,3811.000,0.200,469.000,0.300,43.000,0.500,11.000,1.000,0,5.000,0
"03/08/08","04:16:02",4999.000,"cc",28305.242,6.00,6,0.100,4405.000,0.200,536.000,0.300,37.000,0.500,18.000,1.000,3.000,5.000,0
"03/08/08","04:16:08",4440.000,"cc",28279.746,6.00,6,0.100,3848.000,0.200,527.000,0.300,48.000,0.500,15.000,1.000,2.000,5.000,0
"03/08/08","04:16:14",4224.000,"cc",28321.938,6.00,6,0.100,3687.000,0.200,453.000,0.300,62.000,0.500,21.000,1.000,1.000,5.000,0
"03/08/08","04:16:20",4449.000,"cc",28300.541,6.00,6,0.100,3972.000,0.200,439.000,0.300,36.000,0.500,2.000,1.000,0,5.000,0
"03/08/08","04:16:26",4186.000,"cc",28364.857,6.00,6,0.100,3762.000,0.200,377.000,0.300,36.000,0.500,9.000,1.000,2.000,5.000,0
"03/08/08","04:16:32",4688.000,"cc",28317.020,6.00,6,0.100,4141.000,0.200,501.000,0.300,30.000,0.500,14.000,1.000,2.000,5.000,0
"03/08/08","04:16:38",4457.000,"cc",28274.148,6.00,6,0.100,3968.000,0.200,428.000,0.300,46.000,0.500,15.000,1.000,0,5.000,0
"03/08/08","04:16:44",4644.000,"cc",28421.600,6.00,6,0.100,4068.000,0.200,515.000,0.300,48.000,0.500,12.000,1.000,1.000,5.000,0
"03/08/08","04:16:50",4138.000,"cc",28387.768,6.00,6,0.100,3653.000,0.200,428.000,0.300,40.000,0.500,15.000,1.000,2.000,5.000,0
"03/08/08","04:16:56",4299.000,"cc",28291.445,6.00,6,0.100,3712.000,0.200,502.000,0.300,58.000,0.500,23.000,1.000,4.000,5.000,0
"03/08/08","04:17:02",4171.000,"cc",28294.961,6.00,6,0.100,3680.000,0.200,424.000,0.300,49.000,0.500,17.000,1.000,1.000,5.000,0
"03/08/08","04:17:08",4068.000,"cc",28355.951,6.00,6,0.100,3552.000,0.200,444.000,0.300,47.000,0.500,21.000,1.000,4.000,5.000,0